This is the latest recevied weather packets stored in our database for station/object DB0SMU-12. If no packets are shown the sender has not sent any weather packets the latest 10 day(s).
| Time | Temp. | Humidity | Pressure | Rain* | Wind** | Luminosity | Snow |
|---|---|---|---|---|---|---|---|
| 1778228071 | 12.78° C | 67% | 1018.4 hPa | 0 mm | - | - | - |
| 1778227890 | 12.78° C | 67% | 1018.3 hPa | 0 mm | - | - | - |
| 1778227709 | 13.33° C | 65% | 1018.4 hPa | 0 mm | - | - | - |
| 1778227528 | 13.33° C | 66% | 1018.5 hPa | 0 mm | - | - | - |
| 1778227348 | 13.33° C | 66% | 1018.5 hPa | 0 mm | - | - | - |
| 1778227167 | 13.33° C | 67% | 1018.5 hPa | 0 mm | - | - | - |
| 1778226986 | 13.33° C | 65% | 1018.4 hPa | 0 mm | - | - | - |
| 1778226805 | 13.33° C | 68% | 1018.5 hPa | 0 mm | - | - | - |
| 1778226624 | 12.78° C | 68% | 1018.4 hPa | 0 mm | - | - | - |
| 1778226443 | 12.78° C | 69% | 1018.5 hPa | 0 mm | - | - | - |
| 1778226262 | 12.78° C | 69% | 1018.4 hPa | 0 mm | - | - | - |
| 1778226081 | 12.22° C | 70% | 1018.4 hPa | 0 mm | - | - | - |
| 1778225901 | 12.22° C | 72% | 1018.5 hPa | 0 mm | - | - | - |
| 1778225720 | 11.67° C | 73% | 1018.4 hPa | 0 mm | - | - | - |
| 1778225539 | 11.67° C | 73% | 1018.5 hPa | 0 mm | - | - | - |
| 1778225358 | 11.67° C | 74% | 1018.4 hPa | 0 mm | - | - | - |
| 1778225177 | 11.67° C | 72% | 1018.4 hPa | 0 mm | - | - | - |
| 1778224996 | 11.67° C | 74% | 1018.3 hPa | 0 mm | - | - | - |
| 1778224815 | 11.67° C | 75% | 1018.3 hPa | 0 mm | - | - | - |
| 1778224634 | 11.11° C | 77% | 1018.4 hPa | 0 mm | - | - | - |
| 1778224454 | 10.56° C | 78% | 1018.3 hPa | 0 mm | - | - | - |
| 1778224273 | 10.56° C | 77% | 1018.3 hPa | 0 mm | - | - | - |
| 1778224092 | 10.56° C | 78% | 1018.3 hPa | 0 mm | - | - | - |
| 1778223911 | 10.56° C | 78% | 1018.3 hPa | 0 mm | - | - | - |
| 1778223730 | 10.56° C | 80% | 1018.4 hPa | 0 mm | - | - | - |
* Rain latest hour (hover to see other rain measurements)
** Current wind speed in m/s (hover to see current wind gust speed)